User: anonymous   Login
Location: Bothwell
(42.3833°S, 147.0000°E)
Time: 01:01:51
(UTC+10:00)
Language:

DIWATA 2B (PO-101) - Orbit

View from above orbital plane
View from above orbital plane
View from above satellite
View from above satellite

Ground track
Ground track

The orbit data is extracted from the following two-line orbital elements,

1 43678U 18084H   22274.19410151  .00000820  00000-0  86007-4 0  9993
2 43678  97.9858  48.7985 0008681 301.7701  58.2696 14.92327634213620
Epoch (UTC): 01 October 2022 04:39:30
Eccentricity: 0.0008681
inclination: 97.9858°
perigee height: 584 km
apogee height: 597 km
right ascension of ascending node: 48.7985°
argument of perigee: 301.7701°
revolutions per day: 14.92327634
mean anomaly at epoch: 58.2696°
orbit number at epoch: 21362

The dashed part of the orbit path shows where the satellite is in the earth's shadow,  

DLR